Home   Weather   Viedma   Past weeks
Flag for Argentina

Past Weather in Viedma, Rio Negro, Argentina — Yesterday and Last 2 Weeks

Now
42 °F

Overcast.


Feels Like: 35 °F
Forecast: 55 / 43 °F
Wind: 10 mph from Northwest

Location: Viedma Aerodrome

Current Time: Jun 20, 2019 at 8:17:15 am

Latest Report: Jun 20, 2019 at 7:00 am


Visibility: 19 mi

Pressure: 30.00 "Hg

Humidity: 86%

Dew Point: 38 °F

Location of ViedmaLocation

Past Weather in Viedma — Graph

°F

Viedma Temperature Yesterday

Maximum temperature yesterday: 58 °F (at 2:00 pm)
Minimum temperature yesterday: 41 °F (at 11:00 pm)
Average temperature yesterday: 51 °F

High & Low Weather Summary for the Past Weeks

 TemperatureHumidityPressure
High67 °F (Jun 9, 3:00 pm)98% (Jun 18, 12:00 am)30.52 "Hg (Jun 18, 12:00 am)
Low29 °F (Jun 11, 3:00 am)26% (Jun 6, 4:00 pm)29.47 "Hg (Jun 18, 2:00 pm)
Average51 °F73%29.95 "Hg
* Reported Jun 5 6:00 am — Jun 20 6:00 am, Viedma. Weather by CustomWeather, © 2019

Note: Actual official high and low records may vary slightly from our data, if they occured in-between our weather recording intervals... More about our weather records

Advertising

Viedma Weather History for the Previous 24 Hours

Scroll right to see more
 ConditionsComfort  
Time TempWeatherWind HumidityBarometerVisibility
6:00 am
Thu, Jun 20
41 °FOvercast.12 mph86%30.02 "Hg19 mi
5:00 am40 °FOvercast.3 mph89%30.01 "Hg19 mi
4:00 am40 °FOvercast.10 mph87%30.02 "Hg19 mi
3:00 am41 °FPassing clouds.10 mph91%30.03 "Hg19 mi
2:00 am41 °FPassing clouds.8 mph91%30.03 "Hg19 mi
1:00 am41 °FClear.7 mph91%30.04 "Hg19 mi
12:00 am41 °FClear.7 mph89%30.04 "Hg19 mi
11:00 pm
Wed, Jun 19
41 °FClear.7 mph91%30.04 "Hg19 mi
10:00 pm44 °FClear.6 mph87%30.04 "Hg19 mi
9:00 pm44 °FClear.5 mph87%30.04 "Hg19 mi
8:00 pm46 °FClear.9 mph83%30.04 "Hg19 mi
7:00 pm49 °FPassing clouds.8 mph77%30.03 "Hg19 mi
6:00 pm52 °FPassing clouds.10 mph72%30.01 "Hg19 mi
5:00 pm55 °FPassing clouds.14 mph65%29.98 "Hg19 mi
4:00 pm57 °FPassing clouds.20 mph61%29.96 "Hg19 mi
3:00 pm57 °FPassing clouds.22 mph51%29.95 "Hg19 mi
2:00 pm58 °FPassing clouds.26 mph58%29.94 "Hg19 mi
1:00 pm56 °FPassing clouds.29 mph63%29.93 "Hg19 mi
12:00 pm54 °FOvercast.25 mph68%29.92 "Hg19 mi
11:00 am54 °FOvercast.26 mph66%29.90 "Hg19 mi
10:00 am52 °FPartly sunny.24 mph69%29.86 "Hg19 mi
9:00 am50 °FScattered clouds.21 mph72%29.81 "Hg19 mi
8:00 am51 °FPassing clouds.23 mph70%29.78 "Hg19 mi
Weather by CustomWeather, © 2019

See weather overview